contact: severine.martini@mio.osupytheas.fr, dominique.lefevre@mio.osupytheas.fr
Project:EMSO Ligure-ouest http://www.emso-fr.org/EMSO-France
Sensor Optode, line 4330 Serial 272 
DOI : "https://doi.org/10.17882/97948" 
Title:EMSO Ligure Ouest : Data BathyDock capteur Optode - deploiement "2023-04-28"
Datetime,Profondeur,Latitude,Longitude,optode_type,serial,O2_concentration,O2_saturation,Temperature,Calibrated_Phase,Temp_Compensated_Phase,phase_blue_light,phase_red_light,Amplitude_blue_light,Amplitude_red_light,thermistor_bridge
time,m,degree_north,degree_east,1,1,umol.l-1,%,degree_C,degree,degree,degree,degree,mV,mV,mV
2023-11-13T00:00:07,2420,42.8014,5.9826,4330,272,186.685,57.179,13.312,36.024,36.604,41.194,4.590,295.5,544.2,291.2
2023-11-13T00:03:08,2420,42.8014,5.9826,4330,272,186.495,57.125,13.315,36.035,36.615,41.203,4.588,295.6,544.2,291.1
2023-11-13T00:06:07,2420,42.8014,5.9826,4330,272,186.529,57.132,13.313,36.034,36.614,41.207,4.593,295.5,544.3,291.1
2023-11-13T00:09:07,2420,42.8014,5.9826,4330,272,186.507,57.123,13.311,36.036,36.616,41.204,4.588,295.6,544.2,291.2
2023-11-13T00:12:07,2420,42.8014,5.9826,4330,272,186.479,57.112,13.309,36.039,36.619,41.209,4.590,295.6,544.3,291.3
2023-11-13T00:15:07,2420,42.8014,5.9826,4330,272,186.482,57.112,13.308,36.039,36.619,41.211,4.592,295.5,544.2,291.3
2023-11-13T00:18:07,2420,42.8014,5.9826,4330,272,186.466,57.107,13.308,36.040,36.620,41.207,4.586,295.5,544.2,291.3
2023-11-13T00:21:07,2420,42.8014,5.9826,4330,272,186.624,57.159,13.311,36.029,36.609,41.199,4.591,295.5,544.3,291.2
2023-11-13T00:24:08,2420,42.8014,5.9826,4330,272,186.783,57.207,13.310,36.019,36.599,41.191,4.592,295.5,544.2,291.2
2023-11-13T00:27:08,2420,42.8014,5.9826,4330,272,186.428,57.098,13.311,36.041,36.621,41.214,4.592,295.5,544.3,291.2
2023-11-13T00:30:08,2420,42.8014,5.9826,4330,272,186.626,57.158,13.310,36.029,36.609,41.203,4.594,295.6,544.2,291.2
2023-11-13T00:33:07,2420,42.8014,5.9826,4330,272,186.397,57.090,13.312,36.043,36.623,41.207,4.584,295.5,544.2,291.2
2023-11-13T00:36:07,2420,42.8014,5.9826,4330,272,186.653,57.169,13.312,36.027,36.607,41.197,4.590,295.6,544.3,291.2
2023-11-13T00:39:07,2420,42.8014,5.9826,4330,272,186.627,57.157,13.308,36.030,36.610,41.201,4.592,295.6,544.3,291.3
2023-11-13T00:42:07,2420,42.8014,5.9826,4330,272,186.464,57.109,13.310,36.039,36.619,41.210,4.591,295.6,544.3,291.2
2023-11-13T00:45:07,2420,42.8014,5.9826,4330,272,186.498,57.118,13.310,36.037,36.617,41.206,4.588,295.6,544.2,291.2
2023-11-13T00:48:07,2420,42.8014,5.9826,4330,272,186.640,57.163,13.310,36.028,36.608,41.201,4.592,295.5,544.1,291.2
2023-11-13T00:51:07,2420,42.8014,5.9826,4330,272,186.480,57.116,13.312,36.038,36.618,41.207,4.589,295.5,544.2,291.2
2023-11-13T00:54:07,2420,42.8014,5.9826,4330,272,186.494,57.121,13.313,36.036,36.616,41.206,4.590,295.5,544.2,291.1
2023-11-13T00:57:08,2420,42.8014,5.9826,4330,272,186.592,57.155,13.316,36.029,36.609,41.197,4.589,295.5,544.2,291.0
2023-11-13T01:00:08,2420,42.8014,5.9826,4330,272,186.565,57.141,13.311,36.032,36.613,41.201,4.588,295.6,544.3,291.2
2023-11-13T01:03:07,2420,42.8014,5.9826,4330,272,186.417,57.097,13.312,36.042,36.622,41.211,4.589,295.6,544.2,291.2
2023-11-13T01:06:07,2420,42.8014,5.9826,4330,272,186.841,57.226,13.311,36.015,36.595,41.184,4.590,295.6,544.2,291.2
2023-11-13T01:09:07,2420,42.8014,5.9826,4330,272,186.704,57.181,13.309,36.024,36.604,41.193,4.589,295.6,544.2,291.2
2023-11-13T01:12:07,2420,42.8014,5.9826,4330,272,186.608,57.151,13.309,36.031,36.611,41.202,4.592,295.6,544.2,291.3
2023-11-13T01:15:07,2420,42.8014,5.9826,4330,272,186.746,57.199,13.313,36.020,36.600,41.189,4.589,295.5,544.2,291.1
2023-11-13T01:18:07,2420,42.8014,5.9826,4330,272,186.782,57.208,13.312,36.018,36.599,41.191,4.592,295.6,544.2,291.2
2023-11-13T01:21:07,2420,42.8014,5.9826,4330,272,186.335,57.072,13.312,36.047,36.627,41.218,4.591,295.5,544.2,291.2
2023-11-13T01:24:07,2420,42.8014,5.9826,4330,272,186.857,57.235,13.315,36.012,36.592,41.184,4.592,295.5,544.2,291.1
2023-11-13T01:27:08,2420,42.8014,5.9826,4330,272,186.367,57.081,13.312,36.045,36.625,41.219,4.594,295.6,544.2,291.2
2023-11-13T01:30:08,2420,42.8014,5.9826,4330,272,186.473,57.112,13.310,36.039,36.619,41.211,4.592,295.5,544.2,291.2
2023-11-13T01:33:07,2420,42.8014,5.9826,4330,272,186.517,57.126,13.311,36.036,36.616,41.208,4.592,295.6,544.2,291.2
2023-11-13T01:36:07,2420,42.8014,5.9826,4330,272,186.366,57.079,13.310,36.046,36.626,41.213,4.587,295.5,544.1,291.2
2023-11-13T01:39:07,2420,42.8014,5.9826,4330,272,186.698,57.183,13.312,36.023,36.604,41.195,4.591,295.5,544.2,291.2
2023-11-13T01:42:07,2420,42.8014,5.9826,4330,272,186.601,57.153,13.312,36.029,36.609,41.197,4.588,295.5,544.2,291.2
2023-11-13T01:45:07,2420,42.8014,5.9826,4330,272,186.505,57.123,13.311,36.037,36.617,41.207,4.590,295.5,544.2,291.2
2023-11-13T01:48:07,2420,42.8014,5.9826,4330,272,186.425,57.101,13.314,36.041,36.621,41.210,4.590,295.5,544.2,291.1
2023-11-13T01:51:08,2420,42.8014,5.9826,4330,272,186.413,57.105,13.319,36.038,36.618,41.205,4.587,295.6,544.2,290.9
2023-11-13T01:54:08,2420,42.8014,5.9826,4330,272,186.637,57.168,13.315,36.025,36.605,41.199,4.593,295.6,544.2,291.1
2023-11-13T01:57:08,2420,42.8014,5.9826,4330,272,186.480,57.125,13.319,36.034,36.614,41.204,4.590,295.5,544.2,290.9
2023-11-13T02:00:08,2420,42.8014,5.9826,4330,272,186.593,57.156,13.316,36.028,36.608,41.198,4.590,295.5,544.2,291.0
2023-11-13T02:03:07,2420,42.8014,5.9826,4330,272,186.615,57.164,13.317,36.026,36.606,41.202,4.596,295.5,544.2,291.0
2023-11-13T02:06:07,2420,42.8014,5.9826,4330,272,186.371,57.085,13.314,36.044,36.624,41.213,4.589,295.5,544.2,291.1
2023-11-13T02:09:07,2420,42.8014,5.9826,4330,272,186.401,57.095,13.314,36.042,36.622,41.213,4.591,295.7,544.2,291.1
2023-11-13T02:12:07,2420,42.8014,5.9826,4330,272,186.390,57.091,13.314,36.043,36.623,41.208,4.585,295.6,544.2,291.1
2023-11-13T02:15:07,2420,42.8014,5.9826,4330,272,186.403,57.094,13.313,36.042,36.622,41.213,4.591,295.5,544.2,291.1
2023-11-13T02:18:08,2420,42.8014,5.9826,4330,272,186.606,57.160,13.316,36.027,36.608,41.197,4.589,295.6,544.2,291.0
2023-11-13T02:21:08,2420,42.8014,5.9826,4330,272,186.517,57.133,13.317,36.033,36.613,41.206,4.593,295.6,544.2,291.0
2023-11-13T02:24:08,2420,42.8014,5.9826,4330,272,186.518,57.134,13.316,36.033,36.613,41.208,4.594,295.4,544.2,291.0
2023-11-13T02:27:08,2420,42.8014,5.9826,4330,272,186.206,57.036,13.315,36.053,36.633,41.219,4.586,295.6,544.2,291.0
2023-11-13T02:30:08,2420,42.8014,5.9826,4330,272,186.358,57.087,13.318,36.043,36.623,41.217,4.594,295.6,544.1,291.0
2023-11-13T02:33:07,2420,42.8014,5.9826,4330,272,186.302,57.066,13.316,36.048,36.627,41.214,4.586,295.6,544.2,291.0
2023-11-13T02:36:07,2420,42.8014,5.9826,4330,272,186.407,57.099,13.316,36.040,36.620,41.213,4.593,295.6,544.2,291.0
2023-11-13T02:39:07,2420,42.8014,5.9826,4330,272,186.364,57.091,13.320,36.041,36.621,41.207,4.586,295.6,544.2,290.9
2023-11-13T02:42:07,2420,42.8014,5.9826,4330,272,186.448,57.110,13.315,36.039,36.619,41.207,4.588,295.5,544.2,291.1
2023-11-13T02:45:07,2420,42.8014,5.9826,4330,272,186.623,57.168,13.318,36.025,36.605,41.197,4.592,295.6,544.2,290.9
2023-11-13T02:48:08,2420,42.8014,5.9826,4330,272,186.581,57.161,13.323,36.025,36.605,41.198,4.592,295.6,544.1,290.8
2023-11-13T02:51:08,2420,42.8014,5.9826,4330,272,186.434,57.112,13.319,36.037,36.617,41.208,4.591,295.5,544.1,290.9
2023-11-13T02:54:08,2420,42.8014,5.9826,4330,272,186.253,57.049,13.314,36.051,36.631,41.219,4.588,295.5,544.1,291.1
2023-11-13T02:57:08,2420,42.8014,5.9826,4330,272,186.433,57.111,13.319,36.037,36.617,41.209,4.592,295.6,544.2,290.9
2023-11-13T03:00:08,2420,42.8014,5.9826,4330,272,186.610,57.168,13.321,36.024,36.604,41.198,4.593,295.6,544.2,290.9
2023-11-13T03:03:07,2420,42.8014,5.9826,4330,272,186.291,57.064,13.316,36.048,36.628,41.219,4.591,295.6,544.2,291.0
2023-11-13T03:06:07,2420,42.8014,5.9826,4330,272,186.220,57.039,13.314,36.053,36.633,41.221,4.587,295.6,544.2,291.1
2023-11-13T03:09:07,2420,42.8014,5.9826,4330,272,186.176,57.033,13.320,36.053,36.633,41.217,4.584,295.5,544.2,290.9
2023-11-13T03:12:07,2420,42.8014,5.9826,4330,272,186.469,57.119,13.317,36.036,36.616,41.205,4.589,295.6,544.2,291.0
2023-11-13T03:15:07,2420,42.8014,5.9826,4330,272,186.244,57.049,13.316,36.051,36.631,41.217,4.586,295.5,544.2,291.0
2023-11-13T03:18:08,2420,42.8014,5.9826,4330,272,186.545,57.141,13.316,36.031,36.612,41.202,4.591,295.6,544.2,291.0
2023-11-13T03:21:08,2420,42.8014,5.9826,4330,272,186.294,57.072,13.322,36.045,36.625,41.214,4.589,295.6,544.2,290.8
2023-11-13T03:24:08,2420,42.8014,5.9826,4330,272,186.359,57.087,13.318,36.042,36.622,41.210,4.588,295.5,544.2,291.0
2023-11-13T03:27:07,2420,42.8014,5.9826,4330,272,186.546,57.148,13.321,36.029,36.609,41.199,4.590,295.6,544.2,290.9
2023-11-13T03:30:07,2420,42.8014,5.9826,4330,272,186.292,57.064,13.316,36.047,36.627,41.217,4.590,295.6,544.2,291.0
2023-11-13T03:33:07,2420,42.8014,5.9826,4330,272,186.372,57.095,13.322,36.040,36.620,41.217,4.597,295.5,544.2,290.8
2023-11-13T03:36:07,2420,42.8014,5.9826,4330,272,186.478,57.119,13.314,36.037,36.617,41.209,4.592,295.5,544.2,291.1
2023-11-13T03:39:07,2420,42.8014,5.9826,4330,272,186.450,57.113,13.316,36.037,36.617,41.211,4.594,295.6,544.2,291.0
2023-11-13T03:42:07,2420,42.8014,5.9826,4330,272,186.423,57.105,13.317,36.039,36.619,41.210,4.592,295.7,544.2,291.0
2023-11-13T03:45:07,2420,42.8014,5.9826,4330,272,186.470,57.119,13.317,36.036,36.616,41.213,4.597,295.6,544.2,291.0
2023-11-13T03:48:08,2420,42.8014,5.9826,4330,272,186.496,57.124,13.315,36.035,36.615,41.206,4.591,295.6,544.2,291.1
2023-11-13T03:51:08,2420,42.8014,5.9826,4330,272,186.344,57.077,13.314,36.046,36.626,41.216,4.590,295.7,544.2,291.1
2023-11-13T03:54:08,2420,42.8014,5.9826,4330,272,186.652,57.168,13.311,36.026,36.606,41.201,4.595,295.6,544.2,291.2
2023-11-13T03:57:08,2420,42.8014,5.9826,4330,272,186.496,57.127,13.316,36.034,36.614,41.204,4.589,295.6,544.2,291.0
2023-11-13T04:00:08,2420,42.8014,5.9826,4330,272,186.499,57.126,13.315,36.035,36.615,41.203,4.588,295.5,544.1,291.1
2023-11-13T04:03:07,2420,42.8014,5.9826,4330,272,186.199,57.034,13.315,36.054,36.634,41.222,4.588,295.6,544.2,291.1
2023-11-13T04:06:07,2420,42.8014,5.9826,4330,272,186.378,57.089,13.315,36.042,36.622,41.216,4.593,295.6,544.2,291.1
2023-11-13T04:09:07,2420,42.8014,5.9826,4330,272,186.470,57.122,13.319,36.035,36.615,41.204,4.589,295.6,544.2,290.9
2023-11-13T04:12:07,2420,42.8014,5.9826,4330,272,186.401,57.107,13.324,36.037,36.617,41.209,4.592,295.6,544.2,290.8
2023-11-13T04:15:07,2420,42.8014,5.9826,4330,272,186.553,57.147,13.319,36.030,36.610,41.202,4.592,295.5,544.1,290.9
2023-11-13T04:18:07,2420,42.8014,5.9826,4330,272,186.589,57.158,13.319,36.027,36.607,41.198,4.590,295.5,544.1,290.9
2023-11-13T04:21:08,2420,42.8014,5.9826,4330,272,186.282,57.061,13.317,36.048,36.628,41.218,4.590,295.6,544.2,291.0
2023-11-13T04:24:08,2420,42.8014,5.9826,4330,272,186.484,57.130,13.322,36.032,36.612,41.203,4.591,295.6,544.2,290.8
2023-11-13T04:27:08,2420,42.8014,5.9826,4330,272,186.436,57.124,13.329,36.032,36.612,41.201,4.589,295.5,544.1,290.6
2023-11-13T04:30:07,2420,42.8014,5.9826,4330,272,186.303,57.090,13.334,36.038,36.618,41.207,4.589,295.6,544.2,290.4
2023-11-13T04:33:07,2420,42.8014,5.9826,4330,272,186.449,57.138,13.337,36.027,36.608,41.201,4.594,295.6,544.1,290.4
2023-11-13T04:36:07,2420,42.8014,5.9826,4330,272,186.448,57.133,13.333,36.030,36.610,41.200,4.590,295.6,544.1,290.5
2023-11-13T04:39:07,2420,42.8014,5.9826,4330,272,186.459,57.116,13.317,36.036,36.616,41.206,4.589,295.6,544.1,291.0
2023-11-13T04:42:07,2420,42.8014,5.9826,4330,272,186.185,57.034,13.318,36.053,36.633,41.215,4.582,295.6,544.2,291.0
2023-11-13T04:45:08,2420,42.8014,5.9826,4330,272,186.203,57.038,13.317,36.053,36.633,41.224,4.590,295.6,544.1,291.0
2023-11-13T04:48:08,2420,42.8014,5.9826,4330,272,186.259,57.054,13.316,36.050,36.630,41.219,4.590,295.6,544.2,291.0
2023-11-13T04:51:08,2420,42.8014,5.9826,4330,272,186.374,57.095,13.320,36.040,36.620,41.212,4.592,295.6,544.1,290.9
2023-11-13T04:54:08,2420,42.8014,5.9826,4330,272,186.141,57.028,13.324,36.054,36.634,41.222,4.588,295.6,544.2,290.8
2023-11-13T04:57:07,2420,42.8014,5.9826,4330,272,186.296,57.061,13.313,36.049,36.629,41.219,4.590,295.6,544.2,291.1
2023-11-13T05:00:07,2420,42.8014,5.9826,4330,272,186.517,57.132,13.316,36.033,36.613,41.206,4.593,295.5,544.2,291.0
2023-11-13T05:03:08,2420,42.8014,5.9826,4330,272,186.430,57.113,13.321,36.036,36.616,41.210,4.593,295.6,544.1,290.9
2023-11-13T05:06:07,2420,42.8014,5.9826,4330,272,186.305,57.070,13.318,36.046,36.626,41.217,4.591,295.6,544.2,291.0
2023-11-13T05:09:07,2420,42.8014,5.9826,4330,272,186.388,57.095,13.317,36.041,36.621,41.207,4.586,295.6,544.2,291.0
2023-11-13T05:12:07,2420,42.8014,5.9826,4330,272,186.161,57.025,13.317,36.056,36.635,41.227,4.592,295.7,544.1,291.0
2023-11-13T05:15:07,2420,42.8014,5.9826,4330,272,186.485,57.123,13.316,36.035,36.615,41.208,4.593,295.5,544.2,291.0
2023-11-13T05:18:07,2420,42.8014,5.9826,4330,272,186.450,57.113,13.317,36.037,36.617,41.209,4.592,295.5,544.2,291.0
2023-11-13T05:21:08,2420,42.8014,5.9826,4330,272,186.316,57.076,13.320,36.044,36.624,41.212,4.588,295.6,544.2,290.9
2023-11-13T05:24:08,2420,42.8014,5.9826,4330,272,186.234,57.053,13.321,36.049,36.629,41.217,4.588,295.7,544.1,290.9
2023-11-13T05:27:08,2420,42.8014,5.9826,4330,272,186.267,57.063,13.321,36.047,36.627,41.217,4.590,295.6,544.2,290.9
2023-11-13T05:30:08,2420,42.8014,5.9826,4330,272,186.258,57.068,13.328,36.045,36.625,41.212,4.588,295.6,544.1,290.6
2023-11-13T05:33:07,2420,42.8014,5.9826,4330,272,186.432,57.124,13.329,36.032,36.612,41.204,4.592,295.6,544.2,290.6
2023-11-13T05:36:07,2420,42.8014,5.9826,4330,272,185.949,56.988,13.339,36.059,36.639,41.227,4.588,295.6,544.0,290.3
2023-11-13T05:39:07,2420,42.8014,5.9826,4330,272,186.321,57.092,13.331,36.038,36.618,41.213,4.594,295.6,544.0,290.5
2023-11-13T05:42:07,2420,42.8014,5.9826,4330,272,186.259,57.084,13.340,36.039,36.619,41.211,4.592,295.6,544.1,290.3
2023-11-13T05:45:07,2420,42.8014,5.9826,4330,272,186.144,57.031,13.326,36.053,36.632,41.223,4.591,295.6,544.2,290.7
2023-11-13T05:48:07,2420,42.8014,5.9826,4330,272,186.045,57.014,13.336,36.054,36.634,41.225,4.590,295.6,544.1,290.4
2023-11-13T05:51:08,2420,42.8014,5.9826,4330,272,186.113,57.033,13.336,36.050,36.630,41.222,4.592,295.6,544.1,290.4
2023-11-13T05:54:08,2420,42.8014,5.9826,4330,272,186.114,57.024,13.327,36.054,36.634,41.224,4.590,295.7,544.1,290.7
2023-11-13T05:57:08,2420,42.8014,5.9826,4330,272,186.123,57.032,13.332,36.051,36.631,41.224,4.593,295.6,544.1,290.5
2023-11-13T06:00:08,2420,42.8014,5.9826,4330,272,186.393,57.117,13.334,36.033,36.613,41.204,4.591,295.6,544.1,290.4
2023-11-13T06:03:07,2420,42.8014,5.9826,4330,272,185.930,56.975,13.334,36.063,36.643,41.231,4.588,295.7,544.1,290.5
2023-11-13T06:06:07,2420,42.8014,5.9826,4330,272,186.214,57.054,13.327,36.048,36.628,41.214,4.587,295.7,544.0,290.7
2023-11-13T06:09:07,2420,42.8014,5.9826,4330,272,186.174,57.032,13.320,36.054,36.634,41.225,4.591,295.7,544.2,290.9
2023-11-13T06:12:07,2420,42.8014,5.9826,4330,272,186.202,57.048,13.325,36.049,36.629,41.224,4.595,295.6,544.0,290.7
2023-11-13T06:15:07,2420,42.8014,5.9826,4330,272,186.305,57.098,13.340,36.036,36.616,41.207,4.591,295.7,544.1,290.3
2023-11-13T06:18:07,2420,42.8014,5.9826,4330,272,186.350,57.104,13.334,36.036,36.616,41.209,4.594,295.6,544.0,290.5
2023-11-13T06:21:07,2420,42.8014,5.9826,4330,272,186.145,57.042,13.334,36.049,36.629,41.217,4.589,295.6,544.1,290.4
2023-11-13T06:24:08,2420,42.8014,5.9826,4330,272,185.916,56.973,13.335,36.063,36.643,41.235,4.592,295.7,544.1,290.4
2023-11-13T06:27:08,2420,42.8014,5.9826,4330,272,186.067,57.018,13.334,36.054,36.634,41.227,4.593,295.7,544.2,290.4
2023-11-13T06:30:08,2420,42.8014,5.9826,4330,272,186.122,57.026,13.328,36.054,36.633,41.220,4.586,295.7,544.1,290.7
2023-11-13T06:33:07,2420,42.8014,5.9826,4330,272,186.221,57.045,13.319,36.051,36.631,41.221,4.591,295.7,544.2,290.9
2023-11-13T06:36:07,2420,42.8014,5.9826,4330,272,186.362,57.092,13.321,36.040,36.620,41.210,4.589,295.7,544.2,290.9
2023-11-13T06:39:07,2420,42.8014,5.9826,4330,272,186.216,57.043,13.318,36.052,36.632,41.226,4.594,295.6,544.2,291.0
2023-11-13T06:42:07,2420,42.8014,5.9826,4330,272,186.482,57.132,13.324,36.032,36.612,41.203,4.591,295.7,544.2,290.8
2023-11-13T06:45:07,2420,42.8014,5.9826,4330,272,186.269,57.071,13.327,36.044,36.624,41.214,4.590,295.6,544.2,290.7
2023-11-13T06:48:07,2420,42.8014,5.9826,4330,272,185.995,56.991,13.330,36.061,36.641,41.227,4.586,295.6,544.2,290.6
2023-11-13T06:51:08,2420,42.8014,5.9826,4330,272,186.444,57.121,13.324,36.034,36.614,41.203,4.590,295.7,544.1,290.8
2023-11-13T06:54:08,2420,42.8014,5.9826,4330,272,186.246,57.063,13.327,36.046,36.626,41.214,4.589,295.6,544.2,290.7
2023-11-13T06:57:08,2420,42.8014,5.9826,4330,272,186.237,57.055,13.322,36.048,36.628,41.219,4.591,295.6,544.1,290.8
2023-11-13T07:00:08,2420,42.8014,5.9826,4330,272,185.976,56.977,13.324,36.065,36.644,41.233,4.589,295.7,544.2,290.8
2023-11-13T07:03:07,2420,42.8014,5.9826,4330,272,186.051,57.009,13.331,36.056,36.636,41.219,4.583,295.7,544.2,290.5
2023-11-13T07:06:07,2420,42.8014,5.9826,4330,272,186.441,57.119,13.324,36.034,36.614,41.209,4.595,295.6,544.1,290.8
2023-11-13T07:09:07,2420,42.8014,5.9826,4330,272,186.019,57.008,13.338,36.055,36.635,41.230,4.595,295.6,544.1,290.3
2023-11-13T07:12:07,2420,42.8014,5.9826,4330,272,186.156,57.032,13.324,36.053,36.633,41.224,4.591,295.8,544.1,290.8
2023-11-13T07:15:07,2420,42.8014,5.9826,4330,272,186.097,57.021,13.330,36.054,36.634,41.228,4.594,295.7,544.1,290.6
2023-11-13T07:18:08,2420,42.8014,5.9826,4330,272,186.083,57.010,13.324,36.058,36.638,41.226,4.588,295.7,544.2,290.8
2023-11-13T07:21:08,2420,42.8014,5.9826,4330,272,186.105,57.013,13.321,36.058,36.638,41.224,4.587,295.7,544.1,290.9
2023-11-13T07:24:08,2420,42.8014,5.9826,4330,272,186.053,57.007,13.329,36.057,36.637,41.228,4.591,295.7,544.2,290.6
2023-11-13T07:27:08,2420,42.8014,5.9826,4330,272,186.177,57.043,13.327,36.050,36.630,41.220,4.590,295.7,544.1,290.7
2023-11-13T07:30:08,2420,42.8014,5.9826,4330,272,186.055,57.006,13.328,36.057,36.637,41.231,4.594,295.7,544.2,290.6
2023-11-13T07:33:07,2420,42.8014,5.9826,4330,272,186.102,57.023,13.330,36.054,36.633,41.225,4.592,295.7,544.2,290.6
2023-11-13T07:36:07,2420,42.8014,5.9826,4330,272,185.904,56.964,13.331,36.066,36.646,41.234,4.588,295.8,544.2,290.5
2023-11-13T07:39:07,2420,42.8014,5.9826,4330,272,186.102,57.019,13.326,36.055,36.635,41.225,4.590,295.7,544.2,290.7
2023-11-13T07:42:07,2420,42.8014,5.9826,4330,272,185.992,56.992,13.332,36.059,36.639,41.229,4.590,295.7,544.2,290.5
2023-11-13T07:45:08,2420,42.8014,5.9826,4330,272,186.157,57.043,13.332,36.049,36.629,41.229,4.600,295.7,544.1,290.5
2023-11-13T07:48:08,2420,42.8014,5.9826,4330,272,185.981,56.987,13.331,36.061,36.640,41.229,4.589,295.8,544.2,290.5
2023-11-13T07:51:07,2420,42.8014,5.9826,4330,272,185.786,56.933,13.336,36.071,36.651,41.238,4.587,295.9,544.1,290.4
2023-11-13T07:54:07,2420,42.8014,5.9826,4330,272,185.632,56.884,13.333,36.083,36.663,41.249,4.587,295.8,544.2,290.5
2023-11-13T07:57:07,2420,42.8014,5.9826,4330,272,186.040,57.000,13.327,36.059,36.639,41.235,4.596,295.8,544.1,290.7
2023-11-13T08:00:07,2420,42.8014,5.9826,4330,272,185.959,56.975,13.326,36.065,36.644,41.237,4.593,295.8,544.1,290.7
2023-11-13T08:03:07,2420,42.8014,5.9826,4330,272,186.086,57.014,13.327,36.056,36.636,41.229,4.593,295.8,544.2,290.7
2023-11-13T08:06:07,2420,42.8014,5.9826,4330,272,186.316,57.078,13.321,36.044,36.624,41.214,4.590,295.8,544.1,290.9
2023-11-13T08:09:07,2420,42.8014,5.9826,4330,272,186.100,57.028,13.334,36.051,36.631,41.222,4.591,295.7,544.2,290.4
2023-11-13T08:12:07,2420,42.8014,5.9826,4330,272,185.983,56.980,13.325,36.064,36.644,41.238,4.594,295.8,544.2,290.7
2023-11-13T08:15:08,2420,42.8014,5.9826,4330,272,185.928,56.970,13.330,36.065,36.645,41.232,4.587,295.8,544.2,290.6
2023-11-13T08:18:08,2420,42.8014,5.9826,4330,272,185.998,56.987,13.327,36.062,36.642,41.232,4.590,295.8,544.1,290.7
2023-11-13T08:21:08,2420,42.8014,5.9826,4330,272,186.281,57.059,13.315,36.049,36.629,41.221,4.592,295.7,544.3,291.1
2023-11-13T08:24:08,2420,42.8014,5.9826,4330,272,186.229,57.048,13.319,36.051,36.631,41.228,4.597,295.7,544.2,290.9
2023-11-13T08:27:08,2420,42.8014,5.9826,4330,272,186.166,57.033,13.322,36.054,36.633,41.228,4.595,295.7,544.2,290.8
2023-11-13T08:30:07,2420,42.8014,5.9826,4330,272,186.158,57.043,13.332,36.048,36.628,41.221,4.593,295.6,544.3,290.5
2023-11-13T08:33:07,2420,42.8014,5.9826,4330,272,186.418,57.106,13.319,36.038,36.618,41.206,4.588,295.7,544.2,290.9
2023-11-13T08:36:07,2420,42.8014,5.9826,4330,272,186.381,57.092,13.317,36.042,36.622,41.212,4.591,295.7,544.2,291.0
2023-11-13T08:39:07,2420,42.8014,5.9826,4330,272,186.271,57.061,13.319,36.047,36.627,41.216,4.589,295.7,544.3,290.9
2023-11-13T08:42:07,2420,42.8014,5.9826,4330,272,186.102,57.014,13.323,36.057,36.637,41.233,4.596,295.7,544.2,290.8
2023-11-13T08:45:08,2420,42.8014,5.9826,4330,272,186.495,57.136,13.324,36.031,36.611,41.207,4.596,295.7,544.2,290.8
2023-11-13T08:48:08,2420,42.8014,5.9826,4330,272,186.332,57.077,13.317,36.045,36.625,41.214,4.589,295.7,544.2,291.0
2023-11-13T08:51:08,2420,42.8014,5.9826,4330,272,186.303,57.064,13.313,36.049,36.628,41.222,4.593,295.7,544.3,291.1
2023-11-13T08:54:08,2420,42.8014,5.9826,4330,272,186.321,57.079,13.321,36.043,36.623,41.216,4.593,295.7,544.2,290.9
2023-11-13T08:57:07,2420,42.8014,5.9826,4330,272,186.318,57.073,13.317,36.046,36.626,41.214,4.588,295.6,544.2,291.0
2023-11-13T09:00:07,2420,42.8014,5.9826,4330,272,186.269,57.071,13.327,36.044,36.624,41.213,4.589,295.6,544.2,290.7
2023-11-13T09:03:08,2420,42.8014,5.9826,4330,272,186.256,57.056,13.318,36.049,36.629,41.220,4.590,295.7,544.2,291.0
2023-11-13T09:06:07,2420,42.8014,5.9826,4330,272,186.324,57.085,13.325,36.042,36.622,41.215,4.593,295.6,544.2,290.7
2023-11-13T09:09:07,2420,42.8014,5.9826,4330,272,186.290,57.079,13.328,36.042,36.622,41.213,4.592,295.6,544.1,290.6
2023-11-13T09:12:07,2420,42.8014,5.9826,4330,272,186.019,56.998,13.330,36.059,36.639,41.231,4.592,295.6,544.2,290.6
2023-11-13T09:15:07,2420,42.8014,5.9826,4330,272,186.028,56.988,13.320,36.063,36.643,41.237,4.594,295.7,544.2,290.9
2023-11-13T09:18:07,2420,42.8014,5.9826,4330,272,186.135,57.012,13.313,36.060,36.640,41.227,4.587,295.7,544.2,291.1
2023-11-13T09:21:08,2420,42.8014,5.9826,4330,272,186.237,57.049,13.317,36.051,36.630,41.225,4.595,295.7,544.2,291.0
2023-11-13T09:24:08,2420,42.8014,5.9826,4330,272,186.189,57.040,13.322,36.051,36.631,41.224,4.593,295.6,544.2,290.8
2023-11-13T09:27:08,2420,42.8014,5.9826,4330,272,186.281,57.083,13.334,36.040,36.620,41.212,4.592,295.6,544.1,290.5
2023-11-13T09:30:08,2420,42.8014,5.9826,4330,272,186.359,57.093,13.323,36.040,36.620,41.208,4.588,295.6,544.2,290.8
2023-11-13T09:33:07,2420,42.8014,5.9826,4330,272,186.238,57.056,13.323,36.048,36.628,41.218,4.590,295.7,544.1,290.8
2023-11-13T09:36:07,2420,42.8014,5.9826,4330,272,186.214,57.055,13.328,36.047,36.627,41.216,4.589,295.6,544.2,290.6
2023-11-13T09:39:07,2420,42.8014,5.9826,4330,272,186.273,57.064,13.321,36.047,36.627,41.220,4.594,295.7,544.2,290.9
2023-11-13T09:42:07,2420,42.8014,5.9826,4330,272,186.123,57.013,13.317,36.058,36.638,41.229,4.590,295.6,544.2,291.0
2023-11-13T09:45:07,2420,42.8014,5.9826,4330,272,186.028,56.993,13.324,36.061,36.641,41.231,4.590,295.7,544.2,290.8
2023-11-13T09:48:07,2420,42.8014,5.9826,4330,272,186.246,57.048,13.315,36.052,36.632,41.225,4.594,295.7,544.2,291.1
2023-11-13T09:51:08,2420,42.8014,5.9826,4330,272,186.056,56.991,13.316,36.064,36.644,41.231,4.588,295.7,544.2,291.0
2023-11-13T09:54:08,2420,42.8014,5.9826,4330,272,186.342,57.075,13.313,36.046,36.626,41.216,4.590,295.7,544.3,291.1
2023-11-13T09:57:08,2420,42.8014,5.9826,4330,272,186.233,57.043,13.314,36.052,36.632,41.226,4.594,295.7,544.3,291.1
2023-11-13T10:00:07,2420,42.8014,5.9826,4330,272,186.260,57.054,13.316,36.050,36.630,41.221,4.590,295.7,544.2,291.0